^^
WoodinvilleWX Historical Data
 
Daily Summary for July 19, 2018 Units:  English    Metric   Both
Daily Weekly Monthly Yearly Custom
  Current: High: Low: Average:
Temperature: 56.7 °F 57.9 °F 56.2 °F 57 °F
Dew Point: 53.5 °F 53.7 °F 52.1 °F 52.8 °F
Humidity: 89% 89% 83% 86%
Wind Speed: 0.0mph 0.0mph 0.0mph 0mph
Wind Gust: 0.0mph 1.0mph - -
WindCalm - -
Pressure: 30.16 in 30.16 in 30.13 in -
Precipitation: 0.00 in      
Historical Graphs
 
 
Tabular Data for July 19, 2018
Time Temperature Dew Point Pressure Wind Wind Speed Wind Gust Humidity Rainfall Rate (Hourly)
00:04 57.9 °F 52.8 °F 30.13 in Calm     83% 0.00 in
00:10 57.7 °F 52.9 °F 30.13 in Calm     84% 0.00 in
00:14 57.6 °F 52.8 °F 30.13 in Calm     84% 0.00 in
00:19 57.5 °F 52.7 °F 30.13 in Calm     84% 0.00 in
00:24 57.5 °F 52.7 °F 30.13 in Calm     84% 0.00 in
00:29 57.4 °F 52.9 °F 30.13 in Calm     85% 0.00 in
00:34 57.4 °F 52.6 °F 30.13 in Calm     84% 0.00 in
00:39 57.3 °F 52.5 °F 30.13 in Calm     84% 0.00 in
00:44 57.3 °F 52.8 °F 30.13 in Calm     85% 0.00 in
00:49 57.2 °F 52.7 °F 30.13 in Calm     85% 0.00 in
00:54 57.2 °F 52.7 °F 30.13 in Calm     85% 0.00 in
00:59 57.2 °F 52.7 °F 30.13 in Calm     85% 0.00 in
01:04 57.1 °F 52.6 °F 30.13 in Calm     85% 0.00 in
01:09 57.1 °F 52.6 °F 30.13 in Calm     85% 0.00 in
01:14 57.0 °F 52.5 °F 30.13 in Calm     85% 0.00 in
01:19 56.9 °F 52.4 °F 30.13 in Calm     85% 0.00 in
01:24 56.9 °F 52.4 °F 30.13 in Calm     85% 0.00 in
01:29 56.8 °F 52.4 °F 30.13 in Calm     85% 0.00 in
01:34 56.8 °F 52.4 °F 30.13 in Calm     85% 0.00 in
01:39 56.8 °F 52.7 °F 30.13 in Calm     86% 0.00 in
01:44 56.8 °F 52.4 °F 30.13 in Calm     85% 0.00 in
01:49 56.8 °F 52.7 °F 30.13 in Calm     86% 0.00 in
01:54 56.8 °F 52.4 °F 30.14 in Calm     85% 0.00 in
01:59 56.8 °F 52.7 °F 30.13 in Calm     86% 0.00 in
02:04 56.8 °F 52.7 °F 30.13 in Calm     86% 0.00 in
02:09 56.8 °F 52.7 °F 30.13 in Calm     86% 0.00 in
02:14 56.8 °F 52.7 °F 30.13 in Calm     86% 0.00 in
02:19 56.8 °F 52.7 °F 30.13 in Calm     86% 0.00 in
02:24 56.7 °F 52.6 °F 30.13 in Calm     86% 0.00 in
02:29 56.6 °F 52.1 °F 30.13 in Calm     85% 0.00 in
02:34 56.5 °F 52.4 °F 30.13 in Calm     86% 0.00 in
02:39 56.4 °F 52.3 °F 30.13 in Calm     86% 0.00 in
02:44 56.3 °F 52.2 °F 30.13 in Calm     86% 0.00 in
02:49 56.3 °F 52.5 °F 30.13 in Calm     87% 0.00 in
02:54 56.2 °F 52.4 °F 30.13 in Calm     87% 0.00 in
02:59 56.2 °F 52.4 °F 30.13 in Calm     87% 0.00 in
03:04 56.2 °F 52.4 °F 30.14 in Calm     87% 0.00 in
03:09 56.3 °F 52.5 °F 30.14 in Calm     87% 0.00 in
03:14 56.3 °F 52.5 °F 30.14 in Calm     87% 0.00 in
03:19 56.4 °F 52.6 °F 30.13 in Calm     87% 0.00 in
03:24 56.4 °F 52.6 °F 30.13 in Calm     87% 0.00 in
03:29 56.5 °F 52.7 °F 30.14 in Calm     87% 0.00 in
03:34 56.5 °F 52.4 °F 30.13 in Calm     86% 0.00 in
03:39 56.6 °F 52.8 °F 30.14 in Calm     87% 0.00 in
03:44 56.7 °F 52.9 °F 30.14 in Calm     87% 0.00 in
03:49 56.7 °F 52.6 °F 30.13 in Calm     86% 0.00 in
03:54 56.8 °F 52.7 °F 30.13 in Calm     86% 0.00 in
03:59 56.8 °F 53.0 °F 30.13 in Calm     87% 0.00 in
04:04 56.9 °F 53.1 °F 30.13 in Calm     87% 0.00 in
04:09 56.9 °F 52.8 °F 30.14 in Calm     86% 0.00 in
04:14 57.0 °F 52.9 °F 30.14 in Calm     86% 0.00 in
04:19 57.0 °F 52.9 °F 30.14 in Calm     86% 0.00 in
04:24 57.0 °F 52.9 °F 30.13 in Calm     86% 0.00 in
04:29 57.1 °F 52.6 °F 30.14 in Calm     85% 0.00 in
04:34 57.1 °F 53.0 °F 30.14 in Calm     86% 0.00 in
04:39 57.1 °F 53.0 °F 30.14 in Calm     86% 0.00 in
04:44 57.0 °F 52.9 °F 30.14 in Calm     86% 0.00 in
04:49 57.0 °F 52.9 °F 30.13 in Calm     86% 0.00 in
04:54 57.0 °F 52.9 °F 30.13 in Calm     86% 0.00 in
04:59 57.0 °F 52.9 °F 30.13 in Calm     86% 0.00 in
05:04 57.0 °F 52.5 °F 30.14 in Calm     85% 0.00 in
05:09 57.0 °F 52.9 °F 30.13 in Calm     86% 0.00 in
05:14 56.9 °F 52.8 °F 30.14 in Calm     86% 0.00 in
05:19 56.9 °F 52.8 °F 30.14 in Calm     86% 0.00 in
05:24 57.0 °F 52.9 °F 30.14 in Calm     86% 0.00 in
05:29 57.0 °F 52.9 °F 30.14 in Calm     86% 0.00 in
05:34 56.9 °F 52.8 °F 30.14 in Calm     86% 0.00 in
05:39 56.9 °F 52.8 °F 30.14 in Calm     86% 0.00 in
05:44 56.9 °F 52.8 °F 30.14 in Calm     86% 0.00 in
05:49 56.9 °F 52.8 °F 30.14 in Calm     86% 0.00 in
05:54 57.0 °F 52.9 °F 30.13 in Calm     86% 0.00 in
05:59 57.0 °F 52.9 °F 30.13 in Calm     86% 0.00 in
06:04 57.0 °F 52.9 °F 30.13 in Calm     86% 0.00 in
06:09 57.1 °F 53.0 °F 30.14 in Calm     86% 0.00 in
06:14 57.1 °F 53.0 °F 30.14 in Calm     86% 0.00 in
06:19 57.1 °F 53.0 °F 30.14 in Calm     86% 0.00 in
06:24 57.1 °F 53.0 °F 30.14 in Calm     86% 0.00 in
06:29 57.1 °F 53.0 °F 30.14 in Calm     86% 0.00 in
06:34 57.1 °F 53.0 °F 30.14 in Calm     86% 0.00 in
06:39 57.1 °F 53.3 °F 30.14 in Calm     87% 0.00 in
06:44 57.2 °F 53.4 °F 30.14 in Calm     87% 0.00 in
06:49 57.2 °F 53.1 °F 30.14 in Calm     86% 0.00 in
06:54 57.2 °F 53.1 °F 30.14 in Calm     86% 0.00 in
06:59 57.3 °F 52.8 °F 30.14 in Calm     85% 0.00 in
07:04 57.4 °F 53.2 °F 30.15 in Calm     86% 0.00 in
07:09 57.4 °F 53.2 °F 30.15 in Calm     86% 0.00 in
07:14 57.5 °F 53.0 °F 30.15 in Calm     85% 0.00 in
07:19 57.5 °F 53.4 °F 30.15 in Calm     86% 0.00 in
07:24 57.6 °F 53.5 °F 30.15 in Calm     86% 0.00 in
07:29 57.6 °F 53.1 °F 30.16 in Calm   1.0 mph 85% 0.00 in
07:34 57.6 °F 53.1 °F 30.16 in Calm   1.0 mph 85% 0.00 in
07:39 57.6 °F 53.5 °F 30.16 in Calm     86% 0.00 in
07:44 57.5 °F 53.0 °F 30.16 in Calm   1.0 mph 85% 0.00 in
07:49 57.4 °F 53.2 °F 30.16 in Calm     86% 0.00 in
07:54 57.4 °F 53.6 °F 30.16 in Calm   1.0 mph 87% 0.00 in
07:59 57.3 °F 53.5 °F 30.16 in Calm   1.0 mph 87% 0.00 in
08:04 57.2 °F 53.7 °F 30.16 in Calm   1.0 mph 88% 0.00 in
08:09 57.0 °F 53.5 °F 30.16 in Calm     88% 0.00 in
08:14 56.8 °F 53.3 °F 30.16 in Calm     88% 0.00 in
08:19 56.7 °F 53.5 °F 30.16 in Calm     89% 0.00 in
08:24 56.7 °F 53.5 °F 30.16 in Calm     89% 0.00 in
08:29 56.7 °F 53.5 °F 30.16 in Calm     89% 0.00 in
Woodinville, Washington USA
Compliments of Weather Underground - 4 mb